Location: Twillingate Astronomical Observatory
(49.6173°N, 54.7580°W)
Time: 16:57:20
(UTC-02:-30)

Amateur Radio Satellites - All Passes

Search period start: 26 April 2015 16:27
Search period end: 27 April 2015 16:27
Location: Twillingate Astronomical Observatory, 49.6173°N, 54.7580°W

Satellite Date Start Highest point End Downlink Frequencies (MHz)
Time Altitude Azimuth
Gurwin Techsat 1B 26 Apr 16:28:55 16:31:39 14° 276° (W) 16:34:07 435.225
HORYU 2 26 Apr 16:57:28 17:01:02 22° 269° (W) 17:04:31 437.375
ITUPSAT 1 26 Apr 16:59:29 17:01:48 13° 305° (NW) 17:03:57 437.325
CUTE-I 26 Apr 17:08:33 17:12:35 23° 59° (ENE) 17:16:45 437.470
KKS-1 26 Apr 17:09:10 17:13:12 32° 294° (WNW) 17:17:10 437.445
CUSAT 1 26 Apr 17:10:30 17:14:01 31° 88° (E) 17:18:37 437.405
Cosmos 2504 26 Apr 17:12:12 17:16:57 15° 315° (NW) 17:21:13 435.465 / 435.565
Cubesat XI-IV 26 Apr 17:18:02 17:22:24 27° 61° (ENE) 17:26:53 437.490
ISS 26 Apr 17:18:09 17:21:25 74° 203° (SSW) 17:24:40 145.825
JAS-2 26 Apr 17:18:33 17:25:52 40° 266° (W) 17:32:50 435.910
GONETS M04 26 Apr 17:28:11 17:36:59 88° 280° (W) 17:45:55
AO-7 26 Apr 17:36:12 17:43:24 31° 268° (W) 17:50:27 29.400- 29.500
Cosmos 2499 26 Apr 17:39:52 17:46:38 27° 81° (E) 17:53:29 435.465 / 435.565
MOZHAYETS 4 26 Apr 17:41:46 17:46:18 52° 99° (E) 17:50:46
RS-15 26 Apr 17:44:25 17:54:58 48° 333° (NNW) 18:05:52 29.354- 29.394
PCSat 26 Apr 17:49:23 17:54:46 63° 240° (WSW) 18:00:07 145.827
DANDE 26 Apr 17:55:28 17:59:03 60° 97° (E) 18:03:55 436.750
SO-50 26 Apr 18:01:24 18:05:01 20° 22° (NNE) 18:08:41 436.795
STARS 26 Apr 18:02:26 18:05:25 17° 301° (WNW) 18:08:16 437.465
HO-68 26 Apr 18:28:28 18:32:26 16° 43° (NE) 18:36:40 435.675
VERMONT LUNAR 26 Apr 18:34:00 18:36:17 17° 174° (S) 18:38:36 437.305
CUTE-I 26 Apr 18:46:59 18:52:17 66° 257° (WSW) 18:57:36 437.470
CUSAT 1 26 Apr 18:53:00 18:56:45 31° 298° (WNW) 19:01:33 437.405
ISS 26 Apr 18:55:06 18:57:23 17° 220° (SW) 18:59:36 145.825
Cubesat XI-IV 26 Apr 18:57:02 19:02:15 54° 260° (W) 19:07:30 437.490
AUBIESAT-1 26 Apr 19:03:55 19:07:06 21° 96° (E) 19:10:10 437.475
PHONESAT 2.4 26 Apr 19:11:43 19:14:07 17° 170° (S) 19:16:33 2401.200-2431.200
MOZHAYETS 4 26 Apr 19:19:38 19:23:15 22° 298° (WNW) 19:26:44
YUBILEINY 26 Apr 19:20:11 19:21:47 11° 36° (NE) 19:23:50 435.215
CUBESAT XI-V 26 Apr 19:20:53 19:25:19 46° 98° (E) 19:29:47 437.345
GONETS M04 26 Apr 19:28:17 19:35:21 25° 305° (NW) 19:42:13
PRISM 26 Apr 19:29:09 19:32:51 32° 96° (E) 19:36:33 437.425
Cosmos 2499 26 Apr 19:30:08 19:39:02 83° 280° (W) 19:47:37 435.465 / 435.565
PCSat 26 Apr 19:36:10 19:37:15 10° 257° (WSW) 19:38:01 145.827
DANDE 26 Apr 19:40:29 19:43:14 17° 307° (NW) 19:46:21 436.750
SO-50 26 Apr 19:41:39 19:46:34 58° 44° (NE) 19:51:27 436.795
COMPASS 1 26 Apr 19:48:54 19:51:13 15° 60° (ENE) 19:53:40 437.405
STRAND 1 26 Apr 19:50:28 19:55:20 42° 98° (E) 20:00:11 437.568
GOMX 1 26 Apr 19:50:52 19:54:28 27° 64° (ENE) 19:58:18 467.674
M-CUBED/EXP-1 PRIME 26 Apr 19:56:27 20:00:49 81° 109° (ESE) 20:04:45 437.505
RS-15 26 Apr 20:00:22 20:10:33 38° 6° (N) 20:21:10 29.354- 29.394
BRITE-PL 26 Apr 20:07:56 20:12:01 55° 71° (ENE) 20:16:20 437.365/2234.400
VERMONT LUNAR 26 Apr 20:10:58 20:13:03 15° 191° (S) 20:15:07 437.305
Oscar 11 26 Apr 20:11:16 20:12:49 12° 57° (ENE) 20:14:33 145.826/435.025
HO-68 26 Apr 20:11:51 20:18:50 57° 65° (ENE) 20:25:53 435.675
SEEDS 26 Apr 20:14:24 20:18:04 29° 66° (ENE) 20:21:48 437.485
DOVE 4 26 Apr 20:22:04 20:26:02 36° 67° (ENE) 20:30:15 437.250
CANX-2 26 Apr 20:24:03 20:28:09 44° 70° (ENE) 20:32:18 2200.000
AAUSAT CUBESAT 2 26 Apr 20:29:05 20:32:43 29° 66° (ENE) 20:36:25 437.432
CUTE 1.7 + AOD 2 26 Apr 20:32:57 20:37:07 50° 71° (ENE) 20:41:19 437.475
CUTE-I 26 Apr 20:33:02 20:33:33 10° 279° (W) 20:33:44 437.470
AUBIESAT-1 26 Apr 20:38:06 20:42:12 44° 297° (WNW) 20:45:57 437.475
DX 1 26 Apr 20:47:23 20:48:16 11° 54° (NE) 20:49:21 434.975-435.025
PHONESAT 2.4 26 Apr 20:49:07 20:51:39 18° 187° (S) 20:54:11 2401.200-2431.200
CUBEBUG 2 26 Apr 20:51:36 20:55:06 23° 63° (ENE) 20:58:46 437.445
CINEMA 3 26 Apr 20:58:30 21:02:42 44° 69° (ENE) 21:07:08 145.822/145.860
CUBESAT XI-V 26 Apr 20:58:47 21:02:34 25° 297° (WNW) 21:06:17 437.345
PRISM 26 Apr 21:04:42 21:08:17 28° 295° (WNW) 21:11:47 437.425
YUBILEINY 26 Apr 21:14:00 21:22:04 40° 65° (ENE) 21:30:09 435.215
Cosmos 2491 26 Apr 21:14:21 21:18:30 15° 72° (ENE) 21:23:09 435.465 / 435.565
UWE-3 26 Apr 21:15:03 21:18:56 31° 66° (ENE) 21:22:58 435.000/436.395/437.385
FUNcube-1 26 Apr 21:21:54 21:25:40 29° 65° (ENE) 21:29:36 145.935
COMPASS 1 26 Apr 21:22:09 21:26:24 77° 257° (WSW) 21:30:41 437.405
SO-50 26 Apr 21:22:39 21:26:52 28° 244° (WSW) 21:30:58 436.795
UKube-1 26 Apr 21:26:14 21:29:30 22° 62° (ENE) 21:32:51 .
Cosmos 2499 26 Apr 21:26:48 21:33:40 24° 305° (NW) 21:40:04 435.465 / 435.565
GOMX 1 26 Apr 21:28:33 21:32:31 37° 265° (W) 21:36:41 467.674
STRAND 1 26 Apr 21:29:56 21:34:27 32° 296° (WNW) 21:38:53 437.568
M-CUBED/EXP-1 PRIME 26 Apr 21:32:25 21:35:04 16° 309° (NW) 21:37:30 437.505
DELFI C3 26 Apr 21:32:33 21:36:28 46° 71° (ENE) 21:40:24 145.870
HUMSAT D 26 Apr 21:34:52 21:38:03 21° 62° (ENE) 21:41:20 437.325/437.525
Oscar 11 26 Apr 21:43:59 21:48:20 79° 75° (ENE) 21:52:44 145.826/435.025
ZACube-1 26 Apr 21:47:11 21:51:25 49° 70° (ENE) 21:55:48 437.345
BRITE-PL 26 Apr 21:48:17 21:51:05 17° 273° (W) 21:53:51 437.365/2234.400
SEEDS 26 Apr 21:49:52 21:53:48 34° 264° (W) 21:57:44 437.485
VELOX 1 26 Apr 21:56:01 21:59:22 22° 62° (ENE) 22:02:49 145.980
CUBEBUG 1 26 Apr 21:59:50 22:01:45 13° 57° (ENE) 22:03:49 437.445
DOVE 4 26 Apr 22:00:11 22:03:56 28° 268° (W) 22:07:49 437.250
HO-68 26 Apr 22:00:24 22:06:56 36° 266° (W) 22:13:26 435.675
CANX-2 26 Apr 22:00:53 22:04:19 22° 269° (W) 22:07:41 2200.000
AAUSAT CUBESAT 2 26 Apr 22:04:25 22:08:17 33° 265° (W) 22:12:09 437.432
CUTE 1.7 + AOD 2 26 Apr 22:10:07 22:13:21 20° 270° (W) 22:16:30 437.475
AISAT 26 Apr 22:13:41 22:17:35 32° 66° (ENE) 22:21:32 437.250
RS-15 26 Apr 22:14:24 22:25:38 61° 38° (NE) 22:37:25 29.354- 29.394
50 SAT 26 Apr 22:14:37 22:18:08 30° 67° (ENE) 22:21:43 437.505
DX 1 26 Apr 22:19:29 22:23:47 69° 73° (ENE) 22:28:07 434.975-435.025
ANTELSAT 26 Apr 22:25:29 22:27:01 12° 83° (E) 22:28:48 437.575/2403.000
CUBEBUG 2 26 Apr 22:27:14 22:31:31 48° 262° (W) 22:35:59 437.445
CINEMA 3 26 Apr 22:36:32 22:40:10 24° 270° (W) 22:43:52 145.822/145.860
UWE-3 26 Apr 22:51:23 22:55:25 34° 265° (W) 22:59:35 435.000/436.395/437.385
O/OREOS (USA 219) 26 Apr 22:53:08 22:57:40 67° 113° (ESE) 23:02:13 437.305
ESTCUBE 1 26 Apr 22:56:05 23:00:22 45° 69° (ENE) 23:04:42 437.505/2401.250
FUNcube-1 26 Apr 22:57:51 23:01:55 36° 264° (W) 23:06:05 145.935
UKube-1 26 Apr 23:01:10 23:05:22 49° 260° (W) 23:09:36 .
NANOSAT C BR1 26 Apr 23:02:49 23:04:23 12° 86° (E) 23:06:10 145.865
Cosmos 2491 26 Apr 23:05:10 23:13:44 65° 93° (E) 23:22:25 435.465 / 435.565
POPSAT HIP 1 26 Apr 23:06:12 23:08:11 13° 86° (E) 23:10:21 437.405
Cosmos 2504 26 Apr 23:07:16 23:13:11 22° 53° (NE) 23:19:03 435.465 / 435.565
DELFI C3 26 Apr 23:08:49 23:11:51 20° 269° (W) 23:14:50 145.870
HUMSAT D 26 Apr 23:09:21 23:13:30 50° 261° (W) 23:17:44 437.325/437.525
YUBILEINY 26 Apr 23:10:49 23:19:22 58° 269° (W) 23:27:47 435.215
TIGRISAT 26 Apr 23:13:14 23:17:25 31° 94° (E) 23:21:36 435.000
SPROUT 26 Apr 23:14:39 23:17:42 20° 62° (ENE) 23:20:50 437.525
UNISAT 6 26 Apr 23:18:00 23:22:19 35° 95° (E) 23:26:37 437.425
Oscar 11 26 Apr 23:23:00 23:25:10 13° 274° (W) 23:27:08 145.826/435.025
BUGSAT 1 26 Apr 23:24:37 23:26:42 14° 88° (E) 23:28:59 437.445
ZACube-1 26 Apr 23:24:42 23:28:06 21° 270° (W) 23:31:29 437.345
VELOX 1 26 Apr 23:31:23 23:35:40 50° 261° (W) 23:39:58 145.980
CUBEBUG 1 26 Apr 23:33:11 23:37:31 88° 75° (ENE) 23:41:52 437.445
DUCHIFAT 1 26 Apr 23:34:57 23:38:27 24° 93° (E) 23:42:00 145.980
POLYITAN 1 26 Apr 23:35:19 23:38:55 26° 93° (E) 23:42:34 437.675
50 SAT 26 Apr 23:49:23 23:52:56 29° 265° (W) 23:56:29 437.505
AISAT 26 Apr 23:50:11 23:54:11 32° 265° (W) 23:58:09 437.250
SWISSCUBE 26 Apr 23:52:50 23:53:42 11° 52° (NE) 23:54:47 437.505
QB50P1 26 Apr 23:52:55 23:56:54 37° 97° (E) 00:00:55 145.935-145.965
DX 1 26 Apr 23:58:03 00:00:35 15° 272° (W) 00:02:57 434.975-435.025
ANTELSAT 26 Apr 23:59:53 00:04:40 84° 104° (ESE) 00:09:21 437.575/2403.000
AIST 1 27 Apr 00:04:54 00:07:36 17° 86° (E) 00:10:25
TISAT 1 27 Apr 00:14:05 00:18:10 55° 71° (ENE) 00:22:19 437.305
QB50P2 27 Apr 00:19:17 00:23:36 69° 102° (ESE) 00:27:53 145.880/145.840
RS-15 27 Apr 00:27:08 00:38:14 57° 243° (WSW) 00:49:44 29.354- 29.394
ESTCUBE 1 27 Apr 00:33:48 00:37:28 24° 268° (W) 00:41:05 437.505/2401.250
O/OREOS (USA 219) 27 Apr 00:34:03 00:37:35 21° 315° (NW) 00:41:02 437.305
NANOSAT C BR1 27 Apr 00:36:36 00:40:54 83° 285° (WNW) 00:45:12 145.865
POPSAT HIP 1 27 Apr 00:40:21 00:44:40 77° 286° (WNW) 00:48:58 437.405
SPROUT 27 Apr 00:49:15 00:53:27 54° 260° (W) 00:57:42 437.525
TIGRISAT 27 Apr 00:49:52 00:54:14 37° 293° (WNW) 00:58:31 435.000
ITUPSAT 1 27 Apr 00:53:57 00:58:04 30° 64° (ENE) 01:02:13 437.325
UNISAT 6 27 Apr 00:54:49 00:59:05 33° 294° (WNW) 01:03:15 437.425
BUGSAT 1 27 Apr 00:58:34 01:02:42 69° 287° (WNW) 01:06:52 437.445
Cosmos 2504 27 Apr 00:59:58 01:08:12 84° 80° (E) 01:15:47 435.465 / 435.565
Cosmos 2491 27 Apr 01:03:22 01:11:18 36° 297° (WNW) 01:19:10 435.465 / 435.565
DUCHIFAT 1 27 Apr 01:10:24 01:14:26 40° 291° (WNW) 01:18:26 145.980
YUBILEINY 27 Apr 01:10:41 01:14:23 13° 290° (WNW) 01:17:32 435.215
POLYITAN 1 27 Apr 01:10:56 01:14:58 39° 292° (WNW) 01:18:59 437.675
CUBEBUG 1 27 Apr 01:13:08 01:14:37 11° 275° (W) 01:15:52 437.445
BEESAT 27 Apr 01:23:19 01:27:57 52° 69° (ENE) 01:32:37 436.000
SWISSCUBE 27 Apr 01:25:59 01:30:40 59° 71° (ENE) 01:35:25 437.505
QB50P1 27 Apr 01:29:00 01:32:41 27° 295° (WNW) 01:36:17 145.935-145.965
GONETS M04 27 Apr 01:37:22 01:42:33 17° 46° (NE) 01:48:06
ANTELSAT 27 Apr 01:37:55 01:40:52 16° 302° (WNW) 01:43:39 437.575/2403.000
AIST 1 27 Apr 01:40:39 01:44:53 54° 284° (WNW) 01:49:05
Oscar 19 27 Apr 01:42:57 01:46:53 22° 90° (E) 01:50:54 437.125/150
TISAT 1 27 Apr 01:51:30 01:54:22 17° 271° (W) 01:57:06 437.305
STARS 27 Apr 01:51:56 01:54:28 15° 58° (ENE) 01:57:07 437.465
QB50P2 27 Apr 01:56:16 01:59:03 17° 300° (WNW) 02:01:42 145.880/145.840
CUSAT 1 27 Apr 01:59:14 02:02:53 15° 49° (NE) 02:07:08 437.405
NANOSAT C BR1 27 Apr 02:14:19 02:16:07 12° 303° (WNW) 02:17:46 145.865
POPSAT HIP 1 27 Apr 02:18:23 02:19:52 11° 304° (NW) 02:21:11 437.405
ITAMSAT 1 27 Apr 02:21:09 02:24:03 15° 86° (E) 02:27:11 435.822/435.867
ITUPSAT 1 27 Apr 02:31:17 02:35:50 41° 262° (W) 02:40:23 437.325
KKS-1 27 Apr 02:34:43 02:39:01 51° 70° (ENE) 02:43:23 437.445
RS-15 27 Apr 02:42:46 02:48:23 14° 264° (W) 02:53:08 29.354- 29.394
DANDE 27 Apr 02:46:09 02:51:27 22° 58° (ENE) 02:57:38 436.750
BEESAT 3 27 Apr 02:50:46 02:54:26 33° 120° (ESE) 02:58:11 437.485
BEESAT 2 27 Apr 02:53:58 02:57:34 30° 119° (ESE) 03:01:16 435.950
Cosmos 2504 27 Apr 02:54:33 03:00:37 23° 282° (WNW) 03:06:09 435.465 / 435.565
Gurwin Techsat 1B 27 Apr 02:57:31 03:02:03 28° 93° (E) 03:06:38 435.225
BEESAT 27 Apr 03:02:19 03:06:08 23° 269° (W) 03:09:51 436.000
SWISSCUBE 27 Apr 03:05:25 03:08:58 20° 270° (W) 03:12:26 437.505
MOZHAYETS 4 27 Apr 03:13:44 03:15:49 13° 56° (ENE) 03:18:05
Oscar 19 27 Apr 03:21:33 03:26:43 62° 290° (WNW) 03:31:50 437.125/150
STARS 27 Apr 03:25:59 03:30:22 79° 255° (WSW) 03:34:50 437.465
Cosmos 2499 27 Apr 03:26:02 03:28:51 12° 42° (NE) 03:31:58 435.465 / 435.565
GONETS M04 27 Apr 03:33:05 03:41:51 60° 73° (ENE) 03:50:35
AO-7 27 Apr 03:39:45 03:44:33 17° 83° (E) 03:49:47 29.400- 29.500
CUSAT 1 27 Apr 03:40:11 03:47:20 52° 70° (ENE) 03:55:26 437.405
ITAMSAT 1 27 Apr 03:59:07 04:04:20 85° 289° (WNW) 04:09:33 435.822/435.867
AIST 2 27 Apr 04:02:19 04:06:25 47° 123° (ESE) 04:10:34 435.215
KKS-1 27 Apr 04:12:37 04:16:00 20° 269° (W) 04:19:17 437.445
AUBIESAT-1 27 Apr 04:23:11 04:25:06 13° 48° (NE) 04:27:10 437.475
JAS-2 27 Apr 04:24:17 04:29:46 29° 89° (E) 04:34:47 435.910
DANDE 27 Apr 04:28:26 04:35:42 79° 77° (ENE) 04:44:14 436.750
BEESAT 3 27 Apr 04:28:33 04:32:25 38° 319° (NW) 04:36:19 437.485
BEESAT 2 27 Apr 04:31:39 04:35:36 41° 318° (NW) 04:39:35 435.950
Gurwin Techsat 1B 27 Apr 04:37:10 04:42:18 49° 292° (WNW) 04:47:23 435.225
HORYU 2 27 Apr 04:43:05 04:47:31 53° 100° (E) 04:51:54 437.375
MOZHAYETS 4 27 Apr 04:47:43 04:52:23 81° 73° (ENE) 04:57:03
CUBESAT XI-V 27 Apr 04:54:36 04:56:16 12° 56° (NE) 04:58:07 437.345
Oscar 19 27 Apr 05:03:02 05:05:10 12° 308° (NW) 05:07:04 437.125/150
M-CUBED/EXP-1 PRIME 27 Apr 05:13:56 05:18:12 32° 59° (ENE) 05:22:27 437.505
Cosmos 2499 27 Apr 05:17:04 05:24:42 48° 69° (ENE) 05:31:48 435.465 / 435.565
CUSAT 1 27 Apr 05:23:03 05:30:07 45° 268° (W) 05:37:50 437.405
GONETS M04 27 Apr 05:30:27 05:38:23 38° 275° (W) 05:46:08
AO-7 27 Apr 05:30:44 05:39:04 72° 106° (ESE) 05:47:25 29.400- 29.500
STRAND 1 27 Apr 05:33:59 05:37:11 17° 56° (NE) 05:40:30 437.568
ITAMSAT 1 27 Apr 05:40:00 05:43:11 16° 305° (NW) 05:46:12 435.822/435.867
AIST 2 27 Apr 05:41:18 05:45:10 31° 323° (NW) 05:49:03 435.215
AUBIESAT-1 27 Apr 05:54:21 05:59:06 61° 66° (ENE) 06:03:48 437.475
JAS-2 27 Apr 06:08:58 06:15:22 55° 293° (WNW) 06:20:58 435.910
BEESAT 3 27 Apr 06:09:30 06:11:32 13° 342° (NNW) 06:13:32 437.485
DANDE 27 Apr 06:12:27 06:18:37 28° 272° (W) 06:25:17 436.750
BEESAT 2 27 Apr 06:12:33 06:14:46 14° 341° (NNW) 06:16:56 435.950
HORYU 2 27 Apr 06:20:22 06:23:51 22° 299° (WNW) 06:27:15 437.375
PRISM 27 Apr 06:23:19 06:27:15 43° 69° (ENE) 06:31:13 437.425
MOZHAYETS 4 27 Apr 06:27:45 06:30:17 14° 274° (W) 06:32:37
CUBESAT XI-V 27 Apr 06:28:23 06:32:59 74° 74° (ENE) 06:37:37 437.345
M-CUBED/EXP-1 PRIME 27 Apr 06:48:18 06:52:55 42° 257° (WSW) 06:57:29 437.505
CUTE-I 27 Apr 06:59:43 07:04:35 36° 95° (E) 07:09:28 437.470
Cubesat XI-IV 27 Apr 07:09:43 07:14:47 43° 98° (E) 07:19:51 437.490
Cosmos 2499 27 Apr 07:10:33 07:17:47 41° 273° (W) 07:24:27 435.465 / 435.565
STRAND 1 27 Apr 07:10:39 07:15:47 87° 254° (WSW) 07:20:56 437.568
Cosmos 2491 27 Apr 07:15:34 07:18:00 11° 37° (NE) 07:20:54 435.465 / 435.565
O/OREOS (USA 219) 27 Apr 07:19:46 07:24:00 38° 54° (NE) 07:28:12 437.305
AIST 2 27 Apr 07:23:08 07:25:03 13° 346° (NNW) 07:26:56 435.215
AO-7 27 Apr 07:24:04 07:31:25 36° 307° (NW) 07:38:39 29.400- 29.500
AUBIESAT-1 27 Apr 07:30:32 07:34:13 21° 264° (W) 07:37:47 437.475
BEESAT 2 27 Apr 07:54:23 07:54:37 10° 4° (N) 07:54:51 435.950
JAS-2 27 Apr 07:55:55 07:58:59 13° 316° (NW) 08:01:41 435.910
PRISM 27 Apr 07:59:41 08:02:57 21° 268° (W) 08:06:07 437.425
BRITE-PL 27 Apr 08:08:15 08:11:17 16° 87° (E) 08:14:37 437.365/2234.400
CUBESAT XI-V 27 Apr 08:08:16 08:11:02 15° 273° (W) 08:13:38 437.345
PCSat 27 Apr 08:35:05 08:40:17 50° 118° (ESE) 08:45:32 145.827
CUTE-I 27 Apr 08:39:48 08:44:45 39° 295° (WNW) 08:49:38 437.470
Cubesat XI-IV 27 Apr 08:50:03 08:54:49 33° 297° (WNW) 08:59:30 437.490
STRAND 1 27 Apr 08:53:15 08:55:52 13° 275° (W) 08:58:14 437.568
O/OREOS (USA 219) 27 Apr 08:59:24 09:03:20 30° 254° (WSW) 09:07:12 437.305
COMPASS 1 27 Apr 09:02:58 09:04:57 13° 86° (E) 09:07:06 437.405
AIST 2 27 Apr 09:04:00 09:05:26 11° 10° (N) 09:06:53 435.215
Cosmos 2491 27 Apr 09:09:57 09:18:12 42° 66° (ENE) 09:26:30 435.465 / 435.565
AO-7 27 Apr 09:18:37 09:21:52 13° 332° (NNW) 09:24:52 29.400- 29.500
HO-68 27 Apr 09:22:17 09:28:55 39° 96° (E) 09:35:33 435.675
GOMX 1 27 Apr 09:24:33 09:29:29 47° 98° (E) 09:34:41 467.674
BEESAT 3 27 Apr 09:27:48 09:30:51 19° 29° (NNE) 09:33:54 437.485
ANTELSAT 27 Apr 09:28:03 09:31:12 19° 60° (ENE) 09:34:31 437.575/2403.000
Oscar 11 27 Apr 09:29:29 09:30:29 11° 84° (E) 09:31:44 145.826/435.025
SEEDS 27 Apr 09:29:48 09:33:31 29° 94° (E) 09:37:14 437.485
BEESAT 2 27 Apr 09:31:19 09:34:18 19° 28° (NNE) 09:37:19 435.950
CANX-2 27 Apr 09:40:44 09:44:55 48° 98° (E) 09:49:04 2200.000
AAUSAT CUBESAT 2 27 Apr 09:43:00 09:46:38 28° 94° (E) 09:50:17 437.432
QB50P2 27 Apr 09:43:23 09:45:14 13° 57° (ENE) 09:47:15 145.880/145.840
BRITE-PL 27 Apr 09:45:20 09:50:25 84° 285° (WNW) 09:55:52 437.365/2234.400
CUTE 1.7 + AOD 2 27 Apr 09:49:36 09:53:50 54° 99° (E) 09:58:01 437.475
DOVE 4 27 Apr 09:53:12 09:58:14 59° 99° (E) 10:03:28 437.250
NANOSAT C BR1 27 Apr 09:59:20 10:02:02 17° 61° (ENE) 10:04:52 145.865
POPSAT HIP 1 27 Apr 10:03:05 10:05:59 19° 61° (ENE) 10:08:59 437.405
CUBEBUG 2 27 Apr 10:13:59 10:18:07 28° 93° (E) 10:22:16 437.445
TIGRISAT 27 Apr 10:15:59 10:20:19 45° 69° (ENE) 10:24:47 435.000
PCSat 27 Apr 10:18:51 10:23:53 37° 319° (NW) 10:28:57 145.827
BUGSAT 1 27 Apr 10:19:00 10:21:42 18° 62° (ENE) 10:24:31 437.445
UNISAT 6 27 Apr 10:20:57 10:25:23 51° 70° (ENE) 10:29:57 437.425
YUBILEINY 27 Apr 10:20:57 10:28:43 38° 85° (E) 10:36:37 435.215
CINEMA 3 27 Apr 10:25:27 10:30:24 63° 101° (E) 10:35:25 145.822/145.860
DUCHIFAT 1 27 Apr 10:31:32 10:35:15 32° 67° (ENE) 10:39:03 145.980
POLYITAN 1 27 Apr 10:32:31 10:36:20 34° 67° (ENE) 10:40:13 437.675
UWE-3 27 Apr 10:36:28 10:40:49 37° 95° (E) 10:45:12 435.000/436.395/437.385
COMPASS 1 27 Apr 10:36:59 10:41:13 73° 286° (WNW) 10:45:24 437.405
FUNcube-1 27 Apr 10:41:37 10:45:48 33° 94° (E) 10:49:58 145.935
AIST 2 27 Apr 10:41:54 10:45:27 25° 33° (NNE) 10:49:01 435.215
DELFI C3 27 Apr 10:42:42 10:46:34 42° 98° (E) 10:50:24 145.870
UKube-1 27 Apr 10:44:54 10:48:04 20° 91° (E) 10:51:20 .
HUMSAT D 27 Apr 10:49:42 10:52:57 21° 90° (E) 10:56:16 437.325/437.525
QB50P1 27 Apr 10:49:45 10:53:48 48° 70° (ENE) 10:57:56 145.935-145.965
ANTELSAT 27 Apr 11:02:58 11:07:32 68° 259° (WSW) 11:12:14 437.575/2403.000
GOMX 1 27 Apr 11:03:02 11:07:28 30° 295° (WNW) 11:12:01 467.674
Oscar 11 27 Apr 11:03:03 11:07:27 88° 104° (ESE) 11:11:47 145.826/435.025
BEESAT 3 27 Apr 11:05:19 11:09:28 85° 49° (NE) 11:13:33 437.485
SEEDS 27 Apr 11:05:30 11:09:21 33° 293° (WNW) 11:13:07 437.485
Cosmos 2491 27 Apr 11:06:53 11:15:27 56° 269° (W) 11:23:56 435.465 / 435.565
ZACube-1 27 Apr 11:07:31 11:12:06 59° 101° (E) 11:16:39 437.345
BEESAT 2 27 Apr 11:08:54 11:13:05 79° 49° (NE) 11:17:11 435.950
HO-68 27 Apr 11:09:57 11:16:55 53° 296° (WNW) 11:23:48 435.675
QB50P2 27 Apr 11:16:17 11:20:32 90° 33° (NNE) 11:24:49 145.880/145.840
CANX-2 27 Apr 11:17:17 11:20:35 22° 297° (WNW) 11:23:48 2200.000
VELOX 1 27 Apr 11:17:53 11:21:22 23° 92° (E) 11:24:56 145.980
AAUSAT CUBESAT 2 27 Apr 11:18:30 11:22:19 33° 293° (WNW) 11:26:02 437.432
CUBEBUG 1 27 Apr 11:19:30 11:21:13 12° 86° (E) 11:23:09 437.445
50 SAT 27 Apr 11:21:57 11:25:21 25° 93° (E) 11:28:46 437.505
BRITE-PL 27 Apr 11:25:20 11:28:22 16° 302° (WNW) 11:31:22 437.365/2234.400
CUTE 1.7 + AOD 2 27 Apr 11:26:16 11:29:25 20° 298° (WNW) 11:32:27 437.475
DOVE 4 27 Apr 11:31:35 11:35:42 25° 297° (WNW) 11:39:50 437.250
NANOSAT C BR1 27 Apr 11:33:18 11:37:29 63° 259° (WSW) 11:41:42 145.865
AISAT 27 Apr 11:36:05 11:40:10 34° 96° (E) 11:44:16 437.250
ISS 27 Apr 11:36:35 11:38:25 14° 139° (SE) 11:40:20 145.825
POPSAT HIP 1 27 Apr 11:37:20 11:41:30 57° 259° (W) 11:45:42 437.405
DX 1 27 Apr 11:39:32 11:43:55 71° 103° (ESE) 11:48:16 434.975-435.025
SO-50 27 Apr 11:40:29 11:44:47 37° 120° (ESE) 11:49:16 436.795
AIST 1 27 Apr 11:43:07 11:47:20 56° 76° (ENE) 11:51:33
CUBEBUG 2 27 Apr 11:50:25 11:54:56 42° 292° (WNW) 11:59:24 437.445
BUGSAT 1 27 Apr 11:52:55 11:56:51 54° 260° (W) 12:00:50 437.445
TIGRISAT 27 Apr 11:53:29 11:57:17 25° 268° (W) 12:01:07 435.000
Cosmos 2504 27 Apr 11:54:01 11:58:22 15° 73° (ENE) 12:03:08 435.465 / 435.565
UNISAT 6 27 Apr 11:58:52 12:02:29 22° 270° (W) 12:06:05 437.425
CINEMA 3 27 Apr 12:03:23 12:07:14 22° 298° (WNW) 12:11:01 145.822/145.860
PCSat 27 Apr 12:05:48 12:08:55 15° 343° (NNW) 12:11:59 145.827
DUCHIFAT 1 27 Apr 12:07:21 12:11:05 30° 265° (W) 12:14:49 145.980
POLYITAN 1 27 Apr 12:08:35 12:12:18 28° 266° (W) 12:16:00 437.675
UWE-3 27 Apr 12:13:07 12:17:17 31° 294° (WNW) 12:21:24 435.000/436.395/437.385
COMPASS 1 27 Apr 12:15:19 12:16:12 10° 304° (NW) 12:16:53 437.405
YUBILEINY 27 Apr 12:16:30 12:25:15 60° 287° (WNW) 12:33:57 435.215
FUNcube-1 27 Apr 12:17:57 12:22:07 34° 294° (WNW) 12:26:13 145.935
DELFI C3 27 Apr 12:18:19 12:21:29 22° 296° (WNW) 12:24:34 145.870
AIST 2 27 Apr 12:20:11 12:24:26 67° 234° (SW) 12:28:36 435.215
UKube-1 27 Apr 12:20:18 12:24:31 50° 290° (WNW) 12:28:43 .
ESTCUBE 1 27 Apr 12:20:57 12:25:21 53° 100° (E) 12:29:46 437.505/2401.250
HUMSAT D 27 Apr 12:24:47 12:29:00 49° 290° (WNW) 12:33:10 437.325/437.525
QB50P1 27 Apr 12:26:49 12:29:59 20° 269° (W) 12:33:04 145.935-145.965
SPROUT 27 Apr 12:32:10 12:35:18 20° 90° (E) 12:38:32 437.525
Oscar 11 27 Apr 12:40:48 12:43:03 14° 302° (WNW) 12:45:07 145.826/435.025
ZACube-1 27 Apr 12:44:37 12:48:06 21° 298° (WNW) 12:51:28 437.345
BEESAT 3 27 Apr 12:44:51 12:46:55 13° 248° (WSW) 12:48:50 437.485
Gurwin Techsat 1B 27 Apr 12:46:35 12:48:54 13° 52° (NE) 12:51:26 435.225
BEESAT 2 27 Apr 12:48:18 12:50:41 15° 247° (WSW) 12:52:55 435.950
RS-15 27 Apr 12:49:54 12:55:27 16° 97° (E) 13:01:46 29.354- 29.394
CUBEBUG 1 27 Apr 12:53:53 12:58:16 83° 285° (WNW) 13:02:39 437.445
VELOX 1 27 Apr 12:53:55 12:58:11 46° 291° (WNW) 13:02:25 145.980
QB50P2 27 Apr 12:56:00 12:57:10 11° 275° (W) 12:58:07 145.880/145.840
AO-7 27 Apr 12:56:15 12:59:43 14° 30° (NNE) 13:03:27 29.400- 29.500
50 SAT 27 Apr 12:56:32 13:00:14 34° 292° (WNW) 13:03:53 437.505
HO-68 27 Apr 12:59:19 13:03:13 15° 318° (NW) 13:06:52 435.675
Oscar 19 27 Apr 13:03:46 13:08:41 47° 68° (ENE) 13:13:41 437.125/150
Cosmos 2491 27 Apr 13:07:05 13:10:26 12° 291° (WNW) 13:13:12 435.465 / 435.565
ISS 27 Apr 13:11:05 13:14:19 64° 157° (SSE) 13:17:34 145.825
AISAT 27 Apr 13:12:46 13:16:43 31° 295° (WNW) 13:20:38 437.250
DX 1 27 Apr 13:16:53 13:19:43 17° 301° (WNW) 13:22:25 434.975-435.025
SO-50 27 Apr 13:20:45 13:25:18 43° 320° (NW) 13:30:00 436.795
AIST 1 27 Apr 13:21:53 13:24:36 16° 274° (W) 13:27:10
SWISSCUBE 27 Apr 13:24:34 13:25:34 11° 83° (E) 13:26:51 437.505
TISAT 1 27 Apr 13:29:51 13:34:03 55° 100° (E) 13:38:15 437.305
Cosmos 2504 27 Apr 13:41:35 13:50:18 64° 93° (E) 13:58:51 435.465 / 435.565
ITAMSAT 1 27 Apr 13:42:47 13:47:28 37° 65° (ENE) 13:52:13 435.822/435.867
PCSat 27 Apr 13:52:11 13:54:40 13° 9° (N) 13:57:13 145.827
ESTCUBE 1 27 Apr 13:58:29 14:01:56 22° 298° (WNW) 14:05:18 437.505/2401.250
SPROUT 27 Apr 14:07:30 14:11:43 51° 289° (WNW) 14:15:55 437.525
HORYU 2 27 Apr 14:11:49 14:13:53 13° 56° (NE) 14:16:07 437.375
YUBILEINY 27 Apr 14:19:02 14:24:30 17° 314° (NW) 14:29:36 435.215
Gurwin Techsat 1B 27 Apr 14:22:45 14:28:00 66° 72° (ENE) 14:33:19 435.225
ITUPSAT 1 27 Apr 14:27:17 14:31:41 37° 96° (E) 14:36:06 437.325
CUBEBUG 1 27 Apr 14:32:04 14:34:00 13° 303° (WNW) 14:35:46 437.445
JAS-2 27 Apr 14:39:48 14:46:08 29° 58° (ENE) 14:52:19 435.910
AO-7 27 Apr 14:42:57 14:50:20 39° 54° (NE) 14:57:49 29.400- 29.500
Oscar 19 27 Apr 14:43:50 14:48:17 28° 267° (W) 14:52:42 437.125/150
ISS 27 Apr 14:47:30 14:50:44 59° 356° (N) 14:53:59 145.825
GONETS M04 27 Apr 14:49:26 14:52:43 13° 70° (ENE) 14:56:35
RS-15 27 Apr 14:55:01 15:05:39 64° 120° (ESE) 15:16:37 29.354- 29.394
BEESAT 27 Apr 14:56:44 15:01:30 69° 103° (ESE) 15:06:14 436.000
SWISSCUBE 27 Apr 14:59:34 15:04:22 78° 104° (ESE) 15:09:06 437.505
SO-50 27 Apr 15:03:51 15:07:05 17° 344° (NNW) 15:10:18 436.795
TISAT 1 27 Apr 15:06:25 15:09:31 19° 298° (WNW) 15:12:30 437.305
STARS 27 Apr 15:12:43 15:15:09 15° 87° (E) 15:17:44 437.465
ITAMSAT 1 27 Apr 15:22:12 15:27:00 37° 264° (W) 15:31:47 435.822/435.867
PCSat 27 Apr 15:35:28 15:40:02 27° 34° (NE) 15:44:37 145.827
Cosmos 2504 27 Apr 15:36:09 15:44:18 37° 296° (WNW) 15:52:07 435.465 / 435.565
HORYU 2 27 Apr 15:45:22 15:49:53 84° 75° (ENE) 15:54:26 437.375
KKS-1 27 Apr 15:57:49 16:02:17 57° 101° (E) 16:06:43 437.445
Gurwin Techsat 1B 27 Apr 16:04:31 16:08:32 21° 271° (W) 16:12:26 435.225
ITUPSAT 1 27 Apr 16:05:17 16:09:33 32° 295° (WNW) 16:13:45 437.325
